Wind_Speed
26 24 25 27 31 33 32 32 31 29 31 32 35 39 42 48 53 55 56 35 67 64 60 65 51 58 72 73 81 81 78 77 81 79 84 90 87 93 101 105 101 105 103 102
28 24 27 30 33 31 26 27 27 27 32 34 38 43 46 48 50 53 53 56 60 55 56 51 57 68 75 71 68 75 84 89 92 97 97 93 94 96 100 102 100 98 88 79
31 28 30 34 35 31 26 26 26 31 35 38 44 48 48 47 44 43 44 46 49 51 63 70 76 79 83 84 88 91 92 92 92 93 96 94 92 91 87 80 75 71 69 63
32 33 36 38 33 30 29 28 32 38 40 44 46 47 49 48 46 40 40 42 47 48 53 62 73 72 71 75 81 85 83 84 85 87 84 83 83 78 70 63 57 53 52 51
34 35 35 36 29 31 31 34 35 39 42 42 44 47 49 50 52 49 44 41 41 42 45 47 51 55 60 64 65 66 67 70 72 74 75 68 61 58 54 48 45 44 46 48
33 31 36 36 33 35 36 39 41 43 44 45 48 50 52 53 55 54 48 43 43 45 48 51 53 54 56 58 59 62 62 63 66 68 65 59 53 46 42 39 38 41 41 43
35 34 33 30 34 36 40 41 39 41 44 47 51 52 53 54 55 55 51 47 46 46 48 50 53 54 56 58 57 58 62 62 63 59 54 48 42 36 31 31 32 34 35 38
34 37 34 33 34 39 42 41 40 41 44 48 51 52 53 57 58 59 53 50 49 52 49 52 57 58 59 59 58 59 61 60 56 51 46 38 32 26 21 23 28 30 32 34
36 35 37 35 34 39 40 41 40 42 45 49 52 54 55 61 63 63 60 55 55 57 57 55 56 55 56 54 57 56 57 56 50 46 38 31 24 18 17 21 28 29 30 33
37 39 40 37 39 40 44 42 42 46 47 50 53 56 57 64 65 66 64 61 60 59 59 61 60 50 52 54 55 54 50 52 46 40 32 23 18 13 17 21 25 26 27 30
37 38 37 39 42 45 44 44 47 49 52 53 56 58 61 66 69 71 68 64 65 63 63 64 59 49 48 48 50 52 47 50 43 37 28 19 14 13 17 20 20 23 23 24
38 36 39 40 42 46 48 49 50 52 54 57 59 61 65 69 73 74 74 70 71 70 67 67 61 52 50 50 52 50 50 46 43 35 27 18 14 13 17 18 15 18 19 21
35 36 38 40 44 46 46 48 49 53 56 58 63 64 68 73 76 78 78 75 75 72 74 66 55 54 55 56 55 53 49 43 42 31 25 18 15 13 16 16 12 12 14 17
35 37 40 42 45 46 45 47 50 54 58 61 66 67 71 77 80 81 81 80 80 79 76 64 55 53 53 55 55 52 48 42 39 30 23 18 15 12 13 13 11 8 11 11
41 40 42 44 46 46 46 47 51 57 61 64 67 69 75 80 82 84 86 88 90 89 78 69 66 63 59 55 51 49 46 41 39 29 22 19 16 13 10 9 7 5 4 5
40 41 43 43 45 46 48 50 55 60 63 67 70 76 81 84 85 86 90 94 91 84 77 73 68 66 63 56 52 48 47 42 37 29 22 18 17 14 10 7 4 1 3 6
41 43 43 44 45 47 50 52 56 61 66 70 75 80 82 85 87 90 95 91 83 80 75 68 62 56 55 54 50 46 46 39 34 28 23 19 20 17 12 9 6 3 4 5
42 46 48 45 47 52 55 57 59 63 68 73 78 81 84 86 91 96 91 84 80 72 65 63 59 53 49 46 45 45 42 34 30 27 23 21 23 21 16 14 12 9 9 10
48 47 48 48 53 56 59 59 63 66 72 77 80 84 87 92 101 94 87 82 71 64 60 60 55 46 42 41 39 40 45 39 30 28 25 24 24 27 22 20 18 15 16 15
50 50 51 49 53 57 58 63 66 71 76 79 83 87 92 101 94 85 79 65 59 54 53 53 47 40 35 34 34 37 45 41 32 30 28 28 25 31 27 25 24 21 22 20
47 49 47 48 53 55 60 65 70 75 78 80 87 91 97 96 84 76 64 59 53 48 47 48 44 37 32 29 29 32 36 37 36 34 31 31 29 31 33 30 30 29 28 27
46 44 45 49 52 56 62 67 72 77 79 84 89 92 95 85 78 64 60 57 53 51 46 44 42 35 30 26 26 28 31 34 39 38 33 31 32 30 37 36 34 35 35 34
44 44 48 48 53 58 65 69 73 76 80 86 91 93 86 79 68 61 56 54 52 49 47 43 40 36 30 25 24 25 28 31 39 43 39 37 35 35 35 42 39 39 40 40
42 44 45 51 56 61 66 69 72 77 83 89 90 88 79 67 56 53 51 51 51 51 49 48 43 38 34 27 23 24 25 28 34 45 46 48 44 41 38 40 46 43 44 45
42 42 47 52 58 63 66 69 73 79 85 88 89 81 72 60 54 53 54 52 50 50 50 48 45 42 36 32 28 24 23 27 32 39 47 51 50 48 45 42 47 49 47 49
41 45 50 56 61 64 66 70 75 82 87 88 86 77 65 56 52 53 52 51 51 52 52 53 51 45 40 35 30 27 25 24 28 35 42 51 56 53 50 48 46 53 54 52
Wind_Direction
329 325 316 318 317 313 306 303 312 310 291 308 313 308 305 302 297 296 295 303 291 287 288 286 279 283 292 286 290 293 298 299 299 293 289 290 284 282 286 292 290 290 293 296
331 325 323 321 318 313 298 300 302 304 310 313 318 323 324 321 308 299 296 292 289 279 277 268 273 281 290 292 288 291 290 288 289 295 296 296 294 293 293 293 293 295 297 296
334 327 325 326 321 318 311 302 301 307 312 316 323 327 329 333 324 308 298 291 286 278 265 273 276 277 283 285 288 291 292 295 297 297 298 298 298 298 299 301 301 299 299 298
331 327 331 331 324 312 312 315 315 316 314 320 324 325 327 334 340 328 316 304 293 290 284 275 278 287 289 289 291 294 298 300 301 301 302 302 299 299 299 299 301 303 301 299
330 335 328 332 320 316 321 322 320 319 319 321 322 324 327 332 342 342 334 324 317 310 304 300 297 297 297 298 300 303 303 303 303 304 304 304 304 306 307 309 310 307 306 305
331 325 322 330 319 311 313 314 316 322 325 326 326 330 336 342 344 344 337 333 326 321 315 308 306 304 303 303 302 304 311 311 311 311 311 310 310 311 313 314 314 312 309 307
328 323 320 308 309 308 310 311 313 321 328 330 332 336 339 339 341 341 336 334 330 327 321 317 308 307 305 302 306 310 316 318 316 314 313 313 314 315 317 319 318 315 317 319
323 322 325 312 314 312 314 314 315 320 323 326 330 331 336 338 338 340 337 331 329 327 327 326 313 309 305 309 309 311 318 317 318 318 318 318 316 314 319 328 330 329 330 334
323 323 322 320 309 310 313 317 315 317 320 323 326 329 332 336 336 337 336 333 330 329 328 330 330 309 307 307 309 312 315 318 321 322 321 318 309 308 320 335 342 341 341 347
323 321 325 318 314 317 319 319 320 319 321 323 327 330 332 333 334 333 333 331 331 328 326 327 329 318 311 309 309 309 314 323 323 324 322 311 300 305 325 335 344 347 350 355
322 319 316 316 316 319 319 320 323 322 324 326 330 329 328 329 330 330 331 330 329 327 326 326 328 315 309 310 309 312 313 321 325 326 320 305 295 310 330 339 346 351 357 2
322 316 316 317 316 317 318 321 324 325 324 325 327 327 326 327 328 328 328 329 327 326 326 324 322 311 307 308 311 312 318 321 325 323 315 299 288 308 326 335 349 355 10 18
321 313 314 316 315 317 318 320 319 319 323 324 325 325 325 325 326 326 326 326 324 323 323 322 314 305 300 303 306 310 312 314 319 317 311 293 278 303 323 334 340 353 10 18
322 316 319 315 315 316 318 318 316 318 320 323 324 326 324 323 324 324 325 324 321 322 321 318 312 304 298 296 299 302 307 308 314 312 306 283 268 291 320 328 333 328 347 7
323 323 320 318 317 317 318 317 318 318 321 323 323 323 322 323 324 325 324 323 323 323 320 316 310 303 300 297 295 297 300 300 306 309 296 273 255 271 307 314 328 341 3 46
323 321 320 317 317 317 318 319 317 319 322 322 324 322 324 324 325 325 323 323 321 319 316 311 305 298 295 290 288 287 290 294 295 300 286 266 247 249 276 279 296 41 100 97
321 319 315 313 315 316 318 318 319 323 323 323 324 323 325 324 325 324 322 322 319 317 315 309 304 298 290 282 280 280 280 280 283 289 278 262 241 235 251 239 239 180 162 134
317 316 314 309 312 316 318 321 322 323 323 324 323 324 323 324 324 324 323 322 321 320 316 311 309 303 293 282 271 267 272 273 273 275 269 255 236 227 234 227 222 209 187 163
315 315 312 310 318 318 318 321 323 324 324 325 325 325 326 325 326 326 326 326 325 323 318 315 313 305 292 281 270 252 254 263 261 260 256 245 233 223 223 219 217 212 195 182
317 316 314 314 317 317 319 323 324 325 326 326 326 327 328 329 328 326 325 325 325 323 323 323 321 314 298 281 269 257 247 250 251 249 246 236 229 222 216 214 212 211 201 197
312 312 313 315 317 321 324 324 326 327 328 328 330 330 329 328 325 326 327 329 329 332 332 332 330 323 313 290 273 261 252 239 238 238 236 228 226 219 216 214 210 210 206 207
310 311 315 317 320 322 323 325 327 329 330 330 330 328 328 328 329 331 333 333 338 339 340 341 339 332 325 306 285 265 255 240 227 229 225 226 228 221 215 217 212 210 211 211
308 313 316 320 321 324 325 329 329 330 330 330 330 329 332 332 333 335 336 340 342 347 349 349 347 341 333 322 299 277 262 247 229 223 218 221 226 223 219 216 215 213 213 216
314 318 320 322 325 327 329 329 331 332 331 330 332 334 332 333 334 335 340 343 344 347 349 349 349 346 342 329 313 291 272 257 241 229 220 223 227 223 220 221 219 216 215 216
319 320 321 323 326 328 329 330 332 333 333 334 334 335 335 335 339 341 342 343 345 346 347 348 348 346 344 337 325 307 283 266 252 243 232 227 228 223 218 221 222 220 218 218
319 319 321 325 328 329 329 332 334 335 335 336 337 337 338 339 343 342 344 343 344 344 344 343 344 343 340 337 330 317 299 277 259 249 242 234 231 224 218 220 222 223 221 221
Height
10875 10869 10865 10862 10857 10852 10846 10842 10840 10839 10836 10833 10825 10817 10811 10802 10788 10779 10774 10778 10756 10751 10745 10736 10725 10718 10711 10705 10701 10695 10688 10683 10677 10669 10662 10654 10648 10639 10631 10619 10608 10599 10586 10575
10872 10867 10862 10857 10852 10848 10843 10840 10838 10834 10829 10824 10815 10806 10800 10789 10777 10765 10758 10754 10748 10744 10733 10723 10716 10710 10702 10693 10685 10680 10674 10667 10657 10646 10635 10626 10619 10609 10600 10589 10580 10569 10558 10548
10866 10862 10857 10851 10846 10843 10840 10836 10831 10827 10821 10815 10806 10796 10788 10780 10767 10756 10747 10740 10733 10726 10720 10714 10703 10698 10691 10681 10671 10663 10654 10645 10633 10622 10611 10603 10593 10582 10572 10562 10554 10545 10537 10528
10861 10855 10849 10846 10841 10836 10832 10829 10823 10817 10812 10805 10797 10789 10780 10771 10760 10748 10737 10729 10721 10715 10709 10703 10696 10685 10677 10668 10659 10648 10637 10626 10614 10602 10592 10581 10571 10564 10556 10547 10539 10529 10521 10513
10853 10846 10842 10840 10834 10827 10824 10819 10816 10810 10803 10797 10791 10783 10773 10761 10750 10741 10731 10722 10713 10707 10699 10691 10683 10675 10666 10656 10645 10633 10622 10611 10599 10588 10577 10567 10555 10547 10538 10530 10523 10516 10509 10502
10850 10843 10837 10833 10830 10823 10819 10813 10808 10801 10793 10787 10779 10770 10760 10749 10739 10730 10722 10715 10705 10696 10687 10679 10671 10664 10655 10645 10635 10623 10612 10600 10586 10573 10561 10551 10542 10535 10527 10521 10515 10509 10504 10495
10848 10841 10834 10829 10825 10820 10813 10809 10803 10795 10786 10778 10768 10760 10751 10743 10734 10725 10714 10705 10697 10688 10680 10671 10662 10653 10643 10633 10624 10613 10602 10588 10575 10563 10553 10543 10534 10527 10523 10518 10513 10507 10498 10488
10844 10838 10832 10827 10819 10814 10807 10801 10795 10789 10782 10774 10764 10755 10746 10736 10726 10716 10707 10698 10688 10679 10670 10660 10648 10639 10631 10620 10609 10602 10591 10579 10568 10555 10545 10536 10529 10525 10521 10516 10510 10501 10493 10482
10839 10834 10829 10822 10817 10811 10804 10797 10789 10782 10776 10768 10758 10748 10737 10727 10716 10707 10698 10688 10679 10668 10657 10649 10640 10628 10619 10611 10599 10591 10583 10572 10559 10548 10539 10531 10527 10523 10519 10513 10506 10498 10489 10479
10831 10826 10820 10816 10811 10804 10795 10787 10781 10774 10768 10760 10749 10738 10727 10718 10709 10699 10689 10679 10669 10659 10647 10635 10625 10615 10607 10600 10589 10581 10574 10563 10552 10543 10534 10529 10525 10521 10516 10511 10504 10496 10488 10479
10826 10818 10814 10810 10802 10794 10788 10780 10772 10764 10755 10747 10738 10728 10718 10710 10699 10688 10679 10669 10658 10646 10635 10622 10611 10603 10596 10589 10580 10571 10563 10555 10545 10537 10530 10525 10522 10518 10514 10509 10503 10496 10489 10482
10820 10812 10806 10801 10794 10786 10778 10769 10761 10752 10745 10738 10729 10719 10708 10699 10688 10677 10665 10654 10643 10631 10621 10608 10596 10588 10582 10576 10568 10560 10552 10545 10538 10531 10525 10521 10518 10515 10512 10507 10501 10497 10491 10484
10813 10806 10799 10794 10787 10779 10771 10763 10754 10746 10737 10728 10718 10709 10697 10685 10674 10662 10650 10641 10629 10618 10605 10595 10582 10573 10566 10561 10555 10549 10543 10538 10532 10526 10520 10516 10514 10512 10509 10505 10501 10498 10493 10488
10808 10801 10794 10787 10780 10773 10765 10757 10747 10738 10728 10718 10706 10695 10684 10672 10660 10648 10636 10622 10611 10601 10586 10576 10569 10560 10554 10548 10543 10538 10533 10528 10524 10519 10514 10511 10510 10509 10506 10503 10500 10496 10493 10489
10799 10793 10787 10780 10772 10764 10758 10749 10739 10729 10718 10708 10697 10686 10674 10660 10646 10630 10613 10599 10584 10571 10562 10554 10546 10540 10536 10531 10527 10524 10520 10517 10514 10511 10508 10504 10504 10504 10503 10501 10499 10496 10493 10491
10790 10783 10776 10769 10763 10756 10747 10739 10729 10718 10708 10696 10684 10670 10657 10640 10628 10614 10596 10579 10563 10550 10541 10531 10521 10513 10508 10508 10508 10508 10505 10504 10502 10501 10500 10498 10498 10499 10499 10498 10498 10496 10494 10492
10780 10775 10766 10759 10754 10748 10741 10731 10721 10708 10695 10681 10670 10656 10642 10627 10612 10597 10580 10561 10545 10529 10514 10503 10495 10490 10485 10484 10486 10489 10489 10489 10490 10490 10491 10491 10491 10493 10495 10495 10496 10495 10494 10493
10776 10768 10760 10753 10746 10737 10729 10721 10711 10699 10685 10674 10659 10644 10629 10613 10596 10579 10560 10542 10525 10510 10496 10484 10475 10469 10464 10463 10465 10469 10471 10475 10478 10480 10482 10483 10484 10486 10488 10490 10492 10493 10494 10494
10767 10761 10752 10743 10734 10725 10717 10710 10699 10688 10674 10660 10644 10628 10612 10594 10573 10553 10534 10519 10505 10492 10479 10467 10457 10450 10445 10444 10447 10451 10454 10459 10465 10468 10470 10472 10475 10478 10480 10484 10487 10489 10492 10493
10756 10749 10743 10735 10727 10717 10707 10697 10688 10675 10661 10645 10630 10612 10593 10572 10553 10538 10525 10512 10498 10484 10468 10454 10444 10436 10431 10429 10431 10434 10438 10444 10451 10455 10458 10462 10465 10469 10472 10475 10480 10484 10487 10490
10752 10744 10736 10728 10720 10709 10697 10685 10674 10662 10648 10632 10614 10595 10578 10561 10545 10530 10513 10501 10489 10476 10461 10446 10435 10426 10421 10418 10419 10421 10424 10430 10437 10443 10446 10451 10455 10459 10464 10467 10471 10476 10481 10484
10745 10738 10730 10722 10713 10703 10691 10679 10665 10649 10633 10618 10603 10586 10569 10547 10529 10515 10501 10489 10478 10466 10453 10441 10430 10421 10414 10411 10411 10412 10413 10417 10423 10429 10435 10440 10445 10449 10454 10458 10462 10467 10472 10476
10736 10730 10722 10714 10705 10695 10681 10669 10655 10641 10627 10610 10593 10572 10550 10532 10514 10503 10493 10481 10471 10460 10448 10439 10429 10419 10412 10406 10404 10404 10405 10408 10412 10417 10422 10428 10433 10438 10442 10447 10452 10457 10462 10467
10729 10722 10714 10706 10696 10685 10673 10660 10647 10633 10616 10599 10579 10558 10541 10525 10512 10500 10489 10477 10465 10455 10445 10434 10425 10417 10410 10405 10400 10397 10397 10398 10401 10405 10409 10414 10419 10426 10430 10436 10441 10445 10451 10455
10721 10714 10706 10698 10689 10678 10665 10652 10639 10623 10606 10586 10567 10548 10530 10515 10503 10492 10480 10470 10461 10451 10442 10432 10424 10415 10407 10401 10396 10392 10389 10389 10390 10392 10396 10401 10406 10410 10416 10421 10429 10434 10439 10444
10714 10707 10699 10690 10679 10668 10655 10643 10629 10612 10594 10575 10554 10534 10518 10506 10495 10485 10475 10465 10456 10446 10437 10427 10418 10411 10404 10397 10390 10385 10381 10379 10378 10379 10381 10386 10389 10396 10402 10406 10413 10420 10425 10431